Date String (YYYY-MM-DD hh:mm:ss) UTC,Instrument flags,Ambient pressure (hPa),Sample flow (lpm),Bypass flow (lpm),Sample temperature (°C),Ambient temperature (°C),ASC tube jacket temperature (°C),LED temperature (°C),Box temperature (°C),Sample RH (%),Span deviation,Mass concentration (μg/m³),Mass concentration (μg/m³),Mass concentration (μg/m³)
DateTimeUTC,F1_M11,P_M11,Q1_M11,Q2_M11,T1_M11,T2_M11,T3_M11,T4_M11,T5_M11,U1_M11,ZSPAN_M11,X0_M11,X2_M11,X1_M11
2023-04-23 17:00:00,,0830.0,5.01,0.00,22.5,21.1,00.0,30.9,24.1,15.3,0000.0,0007.59,0004.93,0004.72
2023-04-23 17:01:00,,0830.0,5.00,0.00,22.5,21.1,00.0,30.8,24.1,15.2,0000.0,0007.58,0004.93,0004.72
2023-04-23 17:02:00,,0830.0,5.00,0.00,22.5,21.1,00.0,30.8,24.1,15.3,0000.0,0007.52,0004.96,0004.74
2023-04-23 17:03:00,,0830.0,5.00,0.00,22.5,21.1,00.0,30.9,24.1,15.4,0000.0,0007.39,0004.99,0004.75
2023-04-23 17:04:00,,0830.0,4.99,0.00,22.5,21.1,00.0,30.9,24.1,15.5,0000.0,0007.41,0005.01,0004.75
2023-04-23 17:05:00,,0830.0,5.00,0.00,22.5,21.1,00.0,30.9,24.2,15.6,0000.0,0007.36,0005.00,0004.77
2023-04-23 17:06:00,,0830.0,5.00,0.00,22.5,21.2,00.0,30.9,24.2,15.7,0000.0,0007.40,0005.01,0004.76
2023-04-23 17:07:00,,0830.0,5.00,0.00,22.6,21.2,00.0,30.9,24.2,16.1,0000.0,0007.23,0004.97,0004.74
2023-04-23 17:08:00,,0829.9,5.01,0.00,22.6,21.2,00.0,30.9,24.2,15.2,0000.0,0006.83,0004.94,0004.72
2023-04-23 17:09:00,,0829.9,5.00,0.00,22.5,21.1,00.0,30.9,24.1,15.2,0000.0,0006.86,0004.93,0004.72
2023-04-23 17:10:00,,0829.9,5.00,0.00,22.5,21.0,00.0,30.9,24.1,15.4,0000.0,0006.91,0004.94,0004.70
2023-04-23 17:11:00,,0829.9,4.99,0.00,22.5,21.0,00.0,30.9,24.0,15.3,0000.0,0006.89,0004.94,0004.69
2023-04-23 17:12:00,,0829.9,5.00,0.00,22.5,20.9,00.0,30.9,24.0,15.3,0000.0,0006.92,0004.95,0004.70
2023-04-23 17:13:00,,0829.9,5.00,0.00,22.5,20.9,00.0,30.9,24.1,15.6,0000.0,0006.79,0004.91,0004.67
2023-04-23 17:14:00,,0830.0,5.00,0.00,22.5,20.9,00.0,30.9,24.0,15.2,0000.0,0006.72,0004.89,0004.65
2023-04-23 17:15:00,,0829.9,5.00,0.00,22.5,20.9,00.0,30.9,24.1,15.6,0000.0,0006.75,0004.88,0004.63
2023-04-23 17:16:00,,0829.9,5.00,0.00,22.5,21.0,00.0,30.9,24.1,15.3,0000.0,0006.83,0004.87,0004.60
2023-04-23 17:17:00,,0830.0,5.00,0.00,22.5,21.0,00.0,30.9,24.1,15.2,0000.0,0006.77,0004.85,0004.58
2023-04-23 17:18:00,,0830.0,5.00,0.00,22.5,21.0,00.0,30.9,24.1,15.1,0000.0,0006.76,0004.85,0004.59
2023-04-23 17:19:00,,0830.0,5.01,0.00,22.5,21.0,00.0,30.9,24.1,15.3,0000.0,0006.81,0004.88,0004.61
2023-04-23 17:20:00,,0829.9,5.00,0.00,22.5,21.0,00.0,30.9,24.1,15.3,0000.0,0006.86,0004.90,0004.63
2023-04-23 17:21:00,,0829.9,5.00,0.00,22.5,21.0,00.0,30.9,24.1,15.7,0000.0,0006.78,0004.89,0004.63
2023-04-23 17:22:00,,0829.9,5.00,0.00,22.5,21.1,00.0,30.9,24.1,15.4,0000.0,0006.80,0004.89,0004.65
2023-04-23 17:23:00,,0829.8,5.00,0.00,22.5,21.1,00.0,30.9,24.1,15.2,0000.0,0006.97,0004.92,0004.67
2023-04-23 17:24:00,,0829.8,5.00,0.00,22.5,21.1,00.0,30.9,24.1,15.4,0000.0,0007.12,0004.97,0004.69
2023-04-23 17:25:00,,0829.8,5.00,0.00,22.5,21.2,00.0,30.9,24.2,15.5,0000.0,0007.22,0004.98,0004.70
2023-04-23 17:26:00,,0829.7,5.00,0.00,22.6,21.2,00.0,30.9,24.2,15.8,0000.0,0007.18,0004.97,0004.71
2023-04-23 17:27:00,,0829.7,5.00,0.00,22.6,21.3,00.0,30.9,24.2,16.5,0000.0,0007.22,0004.97,0004.72
2023-04-23 17:28:00,,0829.7,5.00,0.00,22.6,21.3,00.0,30.9,24.2,16.1,0000.0,0007.29,0004.99,0004.74
2023-04-23 17:29:00,,0829.8,5.00,0.00,22.6,21.2,00.0,30.9,24.2,16.2,0000.0,0007.37,0005.03,0004.76
2023-04-23 17:30:00,,0829.7,4.99,0.00,22.6,21.2,00.0,30.9,24.2,16.0,0000.0,0007.35,0005.02,0004.76
2023-04-23 17:31:00,,0829.7,5.00,0.00,22.6,21.2,00.0,30.9,24.2,16.0,0000.0,0007.39,0005.04,0004.78
2023-04-23 17:32:00,,0829.7,5.00,0.00,22.6,21.2,00.0,30.9,24.1,15.9,0000.0,0007.44,0005.08,0004.81
2023-04-23 17:33:00,,0829.7,5.00,0.00,22.6,21.2,00.0,30.9,24.2,16.5,0000.0,0007.53,0005.10,0004.82
2023-04-23 17:34:00,,0829.8,5.01,0.00,22.6,21.2,00.0,30.9,24.2,16.2,0000.0,0007.83,0005.07,0004.81
2023-04-23 17:35:00,,0829.7,5.01,0.00,22.6,21.2,00.0,30.9,24.2,15.7,0000.0,0007.83,0005.08,0004.82
2023-04-23 17:36:00,,0829.7,5.01,0.00,22.6,21.2,00.0,30.9,24.2,16.1,0000.0,0007.82,0005.09,0004.83
2023-04-23 17:37:00,,0829.7,4.99,0.00,22.6,21.2,00.0,30.9,24.2,16.4,0000.0,0007.80,0005.09,0004.83
2023-04-23 17:38:00,,0829.7,4.99,0.00,22.6,21.2,00.0,30.9,24.2,15.7,0000.0,0007.73,0005.09,0004.84
2023-04-23 17:39:00,,0829.6,5.00,0.00,22.6,21.2,00.0,30.9,24.2,15.5,0000.0,0007.65,0005.06,0004.84
2023-04-23 17:40:00,,0829.7,5.01,0.00,22.6,21.2,00.0,30.9,24.2,15.6,0000.0,0007.60,0005.03,0004.82
2023-04-23 17:41:00,,0829.7,5.00,0.00,22.6,21.2,00.0,31.0,24.2,15.8,0000.0,0007.66,0005.05,0004.82
2023-04-23 17:42:00,,0829.7,5.00,0.00,22.6,21.2,00.0,31.0,24.2,15.8,0000.0,0007.67,0005.04,0004.81
2023-04-23 17:43:00,,0829.7,5.00,0.00,22.6,21.2,00.0,31.0,24.2,15.7,0000.0,0007.67,0005.02,0004.78
2023-04-23 17:44:00,,0829.6,4.99,0.00,22.6,21.2,00.0,30.9,24.2,15.5,0000.0,0007.72,0005.04,0004.78
2023-04-23 17:45:00,,0829.6,5.00,0.00,22.6,21.2,00.0,30.9,24.2,15.8,0000.0,0007.35,0005.06,0004.79
2023-04-23 17:46:00,,0829.7,5.00,0.00,22.6,21.1,00.0,31.0,24.2,15.7,0000.0,0007.39,0005.07,0004.79
2023-04-23 17:47:00,,0829.6,5.00,0.00,22.6,21.1,00.0,31.0,24.2,15.7,0000.0,0007.34,0005.05,0004.79
2023-04-23 17:48:00,,0829.6,5.01,0.00,22.6,21.1,00.0,31.0,24.1,15.4,0000.0,0007.37,0005.06,0004.79
2023-04-23 17:49:00,,0829.6,5.00,0.00,22.6,21.0,00.0,31.0,24.1,15.6,0000.0,0007.43,0005.08,0004.78
2023-04-23 17:50:00,,0829.6,5.00,0.00,22.6,21.1,00.0,30.9,24.2,15.9,0000.0,0007.45,0005.09,0004.79
2023-04-23 17:51:00,,0829.6,5.01,0.00,22.6,21.1,00.0,30.9,24.1,15.5,0000.0,0007.42,0005.09,0004.80
2023-04-23 17:52:00,,0829.6,5.00,0.00,22.6,21.1,00.0,31.0,24.1,15.2,0000.0,0007.36,0005.07,0004.81
2023-04-23 17:53:00,,0829.6,5.00,0.00,22.6,21.1,00.0,31.0,24.1,15.2,0000.0,0007.35,0005.09,0004.83
2023-04-23 17:54:00,,0829.5,4.99,0.00,22.6,21.1,00.0,31.0,24.1,15.3,0000.0,0007.41,0005.13,0004.86
2023-04-23 17:55:00,,0829.5,5.00,0.00,22.6,21.1,00.0,31.0,24.2,15.3,0000.0,0007.34,0005.14,0004.89
2023-04-23 17:56:00,,0829.4,5.00,0.00,22.6,21.2,00.0,31.0,24.2,15.4,0000.0,0007.39,0005.16,0004.92
2023-04-23 17:57:00,,0829.4,5.00,0.00,22.6,21.2,00.0,31.0,24.2,15.2,0000.0,0007.38,0005.16,0004.93
2023-04-23 17:58:00,,0829.4,5.00,0.00,22.6,21.2,00.0,31.0,24.2,15.4,0000.0,0007.43,0005.19,0004.95
2023-04-23 17:59:00,,0829.4,5.00,0.00,22.6,21.2,00.0,31.0,24.2,15.7,0000.0,0007.40,0005.19,0004.96
